sat.trackr.live / text

‹ back to catalog

STARLINK-37316

NORAD 68673 · 2026-077M

PAYLOAD ACTIVE UNKNOWN

§ Identity

Operator
Country
US
Launch date
2026-04-11
Launch site
AFWTR
Launch vehicle
Mass (kg)
RCS (m²)

Purposes: comms

External: N2YO · Heavens-Above · Gunter

§ Orbital elements

Epoch: 2026-09-20T02:46:58.215648Z

Period
93.91 min
Inclination
97.2855°
Eccentricity
0.0001718
Mean motion
15.33461110 rev/d
Perigee alt
464.3 km
Apogee alt
466.7 km
Semi-major
6,843.6 km
B*
3.3025e-4
RAAN
133.0110°
Arg perigee
95.1237°
Mean anomaly
265.0201°
Rev number
2,495

§ Raw data

STARLINK-373161 68673U 26077M   26263.11595157  .00010607  00000+0  33025-3 0  99942 68673  97.2855 133.0110 0001718  95.1237 265.0201 15.33461110 24952

JSON: /api/v1/satellites/68673 · /tle

For live sub-satellite position, see the globe view (requires WebGL).

§ Visibility from observer

Set your observer location to see the next 7 days of passes ≥ 10°. The values pass through the URL so the page stays shareable.

No JS? Fill the form by hand. The geolocation button needs JavaScript.